IBE237 KORD-CYYB

Flight info

Callsign IBE237
Flight time 1h 8m
Altitude 39000
Route OBK DCT MKG DCT ASP DCT YYB
Aircraft A21N/M-SDE2E3FGHIRWXY/LB1

Departure

Time 2026-05-04 17:19
Airport Chicago O'Hare International Airport (KORD)

Arrival

Time 2026-05-04 18:28
Airport North Bay Jack Garland Airport (CYYB)
Time Latitude Longitude Altitude Speed Heading
2026-05-04 16:46 41.97355 -87.88502 666 ft 0 kts 359°
2026-05-04 17:10 41.97333 -87.88502 666 ft 3 kts
2026-05-04 17:11 41.97313 -87.88503 665 ft 3 kts
2026-05-04 17:11 41.97293 -87.88507 665 ft 3 kts 17°
2026-05-04 17:11 41.97270 -87.88532 665 ft 1 kts 89°
2026-05-04 17:12 41.97270 -87.88539 665 ft 0 kts 90°
2026-05-04 17:14 41.97270 -87.88534 665 ft 2 kts 89°
2026-05-04 17:14 41.97271 -87.88485 665 ft 1 kts 89°
2026-05-04 17:15 41.97271 -87.88463 665 ft 3 kts 89°
2026-05-04 17:15 41.97268 -87.88349 664 ft 9 kts 128°
2026-05-04 17:16 41.97199 -87.88209 666 ft 15 kts 89°
2026-05-04 17:16 41.97062 -87.88035 669 ft 15 kts 179°
2026-05-04 17:17 41.97012 -87.88028 670 ft 6 kts 149°
2026-05-04 17:17 41.96941 -87.88051 671 ft 1 kts 206°
2026-05-04 17:18 41.96924 -87.88063 671 ft 4 kts 213°
2026-05-04 17:18 41.96912 -87.88075 671 ft 0 kts 218°
2026-05-04 17:19 41.96436 -87.88636 674 ft 129 kts 222°
2026-05-04 17:19 41.94790 -87.90552 2193 ft 160 kts 219°
2026-05-04 17:20 41.93463 -87.93382 3732 ft 210 kts 268°
2026-05-04 17:20 41.95356 -87.96807 5254 ft 266 kts 332°
2026-05-04 17:20 41.97238 -87.97144 6325 ft 280 kts 358°
2026-05-04 17:21 42.01152 -87.96610 8495 ft 288 kts 359°
2026-05-04 17:21 42.05249 -87.96233 10437 ft 306 kts 357°
2026-05-04 17:22 42.07436 -87.96085 10943 ft 329 kts 357°
2026-05-04 17:22 42.09801 -87.95934 11480 ft 350 kts 357°
2026-05-04 17:23 42.17394 -87.95462 13950 ft 374 kts 358°
2026-05-04 17:23 42.19993 -87.94834 14762 ft 386 kts 12°
2026-05-04 17:23 42.24520 -87.90658 16419 ft 410 kts 48°
2026-05-04 17:24 42.26184 -87.87488 17224 ft 417 kts 53°
2026-05-04 17:24 42.31119 -87.77588 19280 ft 430 kts 53°
2026-05-04 17:25 42.32817 -87.74235 19941 ft 434 kts 52°
2026-05-04 17:25 42.36273 -87.67423 21244 ft 443 kts 52°
2026-05-04 17:26 42.39778 -87.60505 22513 ft 452 kts 52°
2026-05-04 17:26 42.45167 -87.49820 24238 ft 464 kts 52°
2026-05-04 17:27 42.48823 -87.42556 25383 ft 468 kts 52°
2026-05-04 17:27 42.52513 -87.35193 26473 ft 474 kts 52°
2026-05-04 17:28 42.56240 -87.27751 27495 ft 479 kts 52°
2026-05-04 17:29 42.61900 -87.16455 28924 ft 488 kts 52°
2026-05-04 17:29 42.67599 -87.04981 30468 ft 487 kts 52°
2026-05-04 17:30 42.73272 -86.93530 31959 ft 484 kts 51°
2026-05-04 17:31 42.77004 -86.85976 32940 ft 482 kts 51°
2026-05-04 17:31 42.82611 -86.74607 34183 ft 480 kts 51°
2026-05-04 17:32 42.85694 -86.68323 34795 ft 479 kts 51°
2026-05-04 17:33 42.91831 -86.55773 35929 ft 477 kts 51°
2026-05-04 17:33 42.93075 -86.53228 36156 ft 476 kts 51°
2026-05-04 17:34 42.98562 -86.41975 37009 ft 476 kts 51°
2026-05-04 17:34 43.00393 -86.38197 37285 ft 476 kts 51°
2026-05-04 17:35 43.05861 -86.26896 38113 ft 474 kts 51°
2026-05-04 17:35 43.09484 -86.19415 38610 ft 474 kts 51°
2026-05-04 17:36 43.13125 -86.11854 38661 ft 474 kts 52°
2026-05-04 17:36 43.16757 -86.04312 38653 ft 473 kts 51°
2026-05-04 17:37 43.20498 -85.96878 38631 ft 473 kts 50°
2026-05-04 17:37 43.24243 -85.89445 38601 ft 473 kts 50°
2026-05-04 17:38 43.27953 -85.82048 38610 ft 474 kts 50°
2026-05-04 17:38 43.31698 -85.74566 38607 ft 474 kts 50°
2026-05-04 17:39 43.37296 -85.63361 38607 ft 474 kts 50°
2026-05-04 17:39 43.41033 -85.55875 38606 ft 475 kts 50°
2026-05-04 17:40 43.44743 -85.48413 38597 ft 475 kts 50°
2026-05-04 17:40 43.48474 -85.40901 38611 ft 475 kts 51°
2026-05-04 17:41 43.52207 -85.33365 38601 ft 475 kts 50°
2026-05-04 17:41 43.55934 -85.25830 38610 ft 476 kts 51°
2026-05-04 17:42 43.59659 -85.18264 38596 ft 477 kts 51°
2026-05-04 17:42 43.63355 -85.10730 38594 ft 477 kts 51°
2026-05-04 17:43 43.67076 -85.03131 38592 ft 477 kts 51°
2026-05-04 17:43 43.70791 -84.95512 38587 ft 478 kts 51°
2026-05-04 17:44 43.74504 -84.87891 38592 ft 479 kts 51°
2026-05-04 17:44 43.78224 -84.80232 38590 ft 479 kts 51°
2026-05-04 17:45 43.81921 -84.72609 38588 ft 479 kts 51°
2026-05-04 17:45 43.85642 -84.64910 38558 ft 479 kts 51°
2026-05-04 17:46 43.89349 -84.57213 38557 ft 480 kts 51°
2026-05-04 17:46 43.93069 -84.49489 38557 ft 482 kts 51°
2026-05-04 17:47 43.96757 -84.41784 38545 ft 482 kts 52°
2026-05-04 17:47 44.00473 -84.34008 38578 ft 483 kts 52°
2026-05-04 17:48 44.04188 -84.26215 38567 ft 482 kts 52°
2026-05-04 17:48 44.07861 -84.18496 38591 ft 480 kts 52°
2026-05-04 17:49 44.11550 -84.10724 38580 ft 482 kts 52°
2026-05-04 17:49 44.15229 -84.02951 38572 ft 483 kts 52°
2026-05-04 17:50 44.18933 -83.95107 38565 ft 482 kts 52°
2026-05-04 17:50 44.22585 -83.87329 38560 ft 482 kts 52°
2026-05-04 17:51 44.26259 -83.79519 38570 ft 481 kts 52°
2026-05-04 17:51 44.29935 -83.71655 38557 ft 482 kts 52°
2026-05-04 17:52 44.33582 -83.63854 38557 ft 483 kts 52°
2026-05-04 17:52 44.37240 -83.55982 38549 ft 482 kts 52°
2026-05-04 17:53 44.40906 -83.48094 38549 ft 482 kts 52°
2026-05-04 17:53 44.44542 -83.40244 38532 ft 483 kts 52°
2026-05-04 17:54 44.48392 -83.32578 38525 ft 483 kts 50°
2026-05-04 17:54 44.52288 -83.24899 38523 ft 483 kts 50°
2026-05-04 17:55 44.56176 -83.17215 38530 ft 483 kts 50°
2026-05-04 17:55 44.60065 -83.09513 38532 ft 482 kts 50°
2026-05-04 17:56 44.63913 -83.01866 38533 ft 483 kts 50°
2026-05-04 17:56 44.67792 -82.94123 38537 ft 483 kts 50°
2026-05-04 17:57 44.71648 -82.86416 38539 ft 483 kts 50°
2026-05-04 17:57 44.75513 -82.78670 38551 ft 483 kts 50°
2026-05-04 17:58 44.79375 -82.70918 38547 ft 482 kts 50°
2026-05-04 17:58 44.83216 -82.63193 38560 ft 483 kts 51°
2026-05-04 17:59 44.87072 -82.55395 38552 ft 483 kts 51°
2026-05-04 18:00 44.92825 -82.43728 38560 ft 484 kts 51°
2026-05-04 18:00 44.96672 -82.35908 38567 ft 484 kts 51°
2026-05-04 18:01 45.00492 -82.28109 38566 ft 483 kts 51°
2026-05-04 18:01 45.04317 -82.20288 38564 ft 482 kts 51°
2026-05-04 18:02 45.09987 -82.08598 38565 ft 483 kts 51°
2026-05-04 18:02 45.13797 -82.00749 38570 ft 483 kts 52°
2026-05-04 18:03 45.17405 -81.92681 38568 ft 484 kts 54°
2026-05-04 18:03 45.20964 -81.84663 38391 ft 483 kts 53°
2026-05-04 18:04 45.22760 -81.80637 38170 ft 483 kts 53°
2026-05-04 18:04 45.24560 -81.76609 37888 ft 483 kts 53°
2026-05-04 18:04 45.28157 -81.68531 37352 ft 484 kts 53°
2026-05-04 18:05 45.29953 -81.64486 37051 ft 485 kts 53°
2026-05-04 18:05 45.31764 -81.60419 36773 ft 486 kts 53°
2026-05-04 18:05 45.33569 -81.56361 36507 ft 486 kts 53°
2026-05-04 18:05 45.35370 -81.52286 36239 ft 487 kts 53°
2026-05-04 18:06 45.38952 -81.44134 35728 ft 489 kts 53°
2026-05-04 18:06 45.40753 -81.40032 35492 ft 488 kts 52°
2026-05-04 18:06 45.42565 -81.35914 35257 ft 489 kts 52°
2026-05-04 18:07 45.44369 -81.31803 35003 ft 489 kts 52°
2026-05-04 18:07 45.46175 -81.27674 34777 ft 491 kts 52°
2026-05-04 18:07 45.47959 -81.23600 34539 ft 492 kts 52°
2026-05-04 18:07 45.49776 -81.19451 34243 ft 491 kts 52°
2026-05-04 18:08 45.51582 -81.15318 33610 ft 490 kts 51°
2026-05-04 18:08 45.53392 -81.11178 32766 ft 491 kts 52°
2026-05-04 18:08 45.55202 -81.07023 31859 ft 495 kts 52°
2026-05-04 18:08 45.57024 -81.02830 31049 ft 497 kts 53°
2026-05-04 18:09 45.60640 -80.94491 29618 ft 495 kts 53°
2026-05-04 18:09 45.64282 -80.86071 28132 ft 498 kts 53°
2026-05-04 18:10 45.66090 -80.81880 27431 ft 491 kts 54°
2026-05-04 18:10 45.67866 -80.77745 26690 ft 485 kts 54°
2026-05-04 18:10 45.69619 -80.73654 25969 ft 480 kts 54°
2026-05-04 18:10 45.71360 -80.69596 25284 ft 474 kts 54°
2026-05-04 18:11 45.73077 -80.65595 24608 ft 469 kts 54°
2026-05-04 18:11 45.74778 -80.61621 23917 ft 464 kts 55°
2026-05-04 18:11 45.76433 -80.57733 23258 ft 460 kts 55°
2026-05-04 18:11 45.78094 -80.53843 22517 ft 455 kts 55°
2026-05-04 18:12 45.79740 -80.49987 21778 ft 450 kts 55°
2026-05-04 18:12 45.81362 -80.46180 21071 ft 445 kts 55°
2026-05-04 18:12 45.82967 -80.42405 20408 ft 440 kts 56°
2026-05-04 18:12 45.84547 -80.38689 19789 ft 434 kts 56°
2026-05-04 18:13 45.86109 -80.35006 19199 ft 428 kts 56°
2026-05-04 18:13 45.87646 -80.31373 18633 ft 423 kts 56°
2026-05-04 18:13 45.90650 -80.24255 17541 ft 411 kts 56°
2026-05-04 18:14 45.92125 -80.20760 16952 ft 406 kts 56°
2026-05-04 18:14 45.93589 -80.17285 16399 ft 407 kts 56°
2026-05-04 18:14 45.95059 -80.13791 15897 ft 407 kts 57°
2026-05-04 18:15 45.97970 -80.06857 14840 ft 408 kts 57°
2026-05-04 18:15 46.00883 -79.99909 13807 ft 400 kts 57°
2026-05-04 18:15 46.02305 -79.96508 13284 ft 393 kts 57°
2026-05-04 18:16 46.03701 -79.93158 12746 ft 387 kts 57°
2026-05-04 18:16 46.05076 -79.89856 12251 ft 381 kts 57°
2026-05-04 18:16 46.06427 -79.86613 11758 ft 377 kts 57°
2026-05-04 18:17 46.09129 -79.80111 10848 ft 375 kts 58°
2026-05-04 18:17 46.10454 -79.76913 10574 ft 366 kts 58°
2026-05-04 18:17 46.12982 -79.70822 10178 ft 342 kts 58°
2026-05-04 18:18 46.14166 -79.67964 9963 ft 333 kts 58°
2026-05-04 18:18 46.15342 -79.65117 9571 ft 330 kts 58°
2026-05-04 18:18 46.16518 -79.62271 9111 ft 329 kts 58°
2026-05-04 18:18 46.17689 -79.59432 8650 ft 328 kts 58°
2026-05-04 18:19 46.19615 -79.54755 8029 ft 322 kts 58°
2026-05-04 18:19 46.20752 -79.51991 7685 ft 320 kts 58°
2026-05-04 18:19 46.21892 -79.49224 7348 ft 321 kts 59°
2026-05-04 18:20 46.23031 -79.46450 6978 ft 320 kts 59°
2026-05-04 18:20 46.24160 -79.43697 6606 ft 318 kts 59°
2026-05-04 18:20 46.25284 -79.40956 6236 ft 316 kts 59°
2026-05-04 18:20 46.26402 -79.38222 5864 ft 314 kts 60°
2026-05-04 18:21 46.27493 -79.35545 5508 ft 311 kts 60°
2026-05-04 18:21 46.28584 -79.32870 5165 ft 307 kts 60°
2026-05-04 18:21 46.29662 -79.30231 4835 ft 303 kts 60°
2026-05-04 18:21 46.30731 -79.27609 4481 ft 300 kts 60°
2026-05-04 18:22 46.31789 -79.25021 4116 ft 298 kts 61°
2026-05-04 18:22 46.32837 -79.22447 3775 ft 295 kts 61°
2026-05-04 18:22 46.33874 -79.19917 3454 ft 290 kts 59°
2026-05-04 18:22 46.35251 -79.17818 3124 ft 287 kts 32°
2026-05-04 18:23 46.37110 -79.16924 2805 ft 281 kts
2026-05-04 18:23 46.38978 -79.17433 2598 ft 269 kts 334°
2026-05-04 18:23 46.40621 -79.18569 2548 ft 253 kts 327°
2026-05-04 18:23 46.41894 -79.20075 2532 ft 229 kts 300°
2026-05-04 18:24 46.42426 -79.22065 2498 ft 200 kts 269°
2026-05-04 18:24 46.42257 -79.23938 2512 ft 181 kts 244°
2026-05-04 18:24 46.41729 -79.25483 2584 ft 164 kts 237°
2026-05-04 18:24 46.41232 -79.26886 2584 ft 148 kts 238°
2026-05-04 18:25 46.40822 -79.28162 2641 ft 130 kts 240°
2026-05-04 18:25 46.40445 -79.29334 2439 ft 126 kts 238°
2026-05-04 18:25 46.40071 -79.30473 2419 ft 128 kts 239°
2026-05-04 18:25 46.39702 -79.31656 2425 ft 128 kts 240°
2026-05-04 18:26 46.39342 -79.32830 2272 ft 126 kts 239°
2026-05-04 18:26 46.38978 -79.33990 2033 ft 126 kts 240°
2026-05-04 18:26 46.38607 -79.35146 1878 ft 126 kts 240°
2026-05-04 18:26 46.38242 -79.36315 1792 ft 127 kts 242°
2026-05-04 18:27 46.37861 -79.37461 1731 ft 127 kts 242°
2026-05-04 18:27 46.37517 -79.38662 1557 ft 131 kts 240°
2026-05-04 18:27 46.37142 -79.39846 1385 ft 127 kts 239°
2026-05-04 18:27 46.36780 -79.40991 1194 ft 125 kts 239°
2026-05-04 18:28 46.36447 -79.42012 1185 ft 88 kts 244°
2026-05-04 18:28 46.36275 -79.42553 1187 ft 32 kts 242°
2026-05-04 18:28 46.36216 -79.42742 1188 ft 17 kts 252°
2026-05-04 18:28 46.36139 -79.42827 1187 ft 12 kts 196°
2026-05-04 18:29 46.36126 -79.42834 1187 ft 0 kts 202°
2026-05-04 18:29 46.36119 -79.42838 1187 ft 3 kts 202°
2026-05-04 18:29 46.36114 -79.42841 1187 ft 0 kts 202°
2026-05-04 18:30 46.36110 -79.42843 1188 ft 2 kts 203°
2026-05-04 18:30 46.36082 -79.42860 1188 ft 7 kts 203°
2026-05-04 18:31 46.36040 -79.42828 1189 ft 10 kts 95°
2026-05-04 18:31 46.36067 -79.42716 1188 ft 13 kts 62°
2026-05-04 18:31 46.36111 -79.42582 1189 ft 16 kts 67°
2026-05-04 18:31 46.36162 -79.42421 1189 ft 19 kts 64°
2026-05-04 18:32 46.36219 -79.42242 1188 ft 21 kts 65°
2026-05-04 18:32 46.36280 -79.42051 1187 ft 17 kts 65°
2026-05-04 18:32 46.36326 -79.41908 1186 ft 16 kts 65°
2026-05-04 18:32 46.36364 -79.41787 1186 ft 7 kts 66°
2026-05-04 18:33 46.36379 -79.41735 1186 ft 1 kts 78°
2026-05-04 18:33 46.36371 -79.41711 1186 ft 5 kts 145°
2026-05-04 18:33 46.36356 -79.41698 1186 ft 0 kts 156°